Chevrolet Corvette 1997-2004 (C5)

Collector vehicles for sale.
User avatar
Feed
Site Admin
Posts: 2826
Joined: Fri Jul 31, 2020 9:57 am

Chevrolet Corvette 1997-2004 (C5)

Post by Feed »

Looking for something else? Check the Directory for what you're after. Don't see it? Make a request.
Trying to sell one, test the waters, or just show off? Post it in our Readers' Rides section.
If you like this kind of thing, subscribe to our mailing list for updates. It's worth your time, I promise. Something broken? Have an idea? Come say hi in our Discord server.

Image Year Title Mileage Price City State Date Found
Image 1997 Chevrolet Corvette Coupe 2D 81000 $9000 St Louis Missouri 2020-10-25
Image 1997 Chevrolet Corvette Coupe 2D 71000 $13000 Pickerington Ohio 2020-10-24
Image 1997 Chevrolet Corvette 98000 $12500 Columbus Ohio 2020-10-24
Image 1997 Chevrolet Corvette Coupe 2D 100000 $9000 New York NY 2020-10-24
Image 1997 Chevrolet Corvette 74000 $15000 Granite City Illinois 2020-10-24
Image 1997 Chevrolet Corvette Coupe 2D 56000 $17000 Andover Minnesota 2020-10-24
Image 1997 Chevrolet Corvette Coupe 2D 60000 $12500 La Vergne Tennessee 2020-10-22
Image 1997 Chevrolet Corvette 74000 $15000 Granite City Illinois 2020-10-22
Image 1997 Chevrolet Corvette Coupe 2D 128000 $13500 Centereach New York 2020-10-22
Image 1997 Chevrolet Corvette Coupe 2D 170000 $10000 Portland Oregon 2020-10-17
Image 1997 Chevrolet Corvette Coupe 2D 99000 $9000 Newnan Georgia 2020-10-17
Image 1997 Chevrolet Corvette Coupe 2D 168000 $8500 Irving Texas 2020-10-17
Image 1997 Chevrolet Corvette Coupe 2D 109000 $12000 Upland California 2020-10-17
Image 1997 Chevrolet Corvette Coupe 2D 89000 $10500 Gibbstown New Jersey 2020-10-17
Image 1997 Chevrolet Corvette 71000 $16000 Stratford New Jersey 2020-10-17
Image 1997 Chevrolet Corvette Coupe 2D 98000 $15500 Wood Dale Illinois 2020-10-12
Image 1997 Chevrolet Corvette Coupe 2D 66000 $13500 Hillsboro Texas 2020-10-12
Image 1997 Chevrolet Corvette Coupe 2D 23000 $14000 Saline Michigan 2020-10-12
Image 1997 Chevrolet Corvette Coupe 2D 555 $17000 Hatboro Pennsylvania 2020-10-12
Image 1997 Chevrolet Corvette 149000 $9000 Wood River Illinois 2020-10-12
Image 1998 Chevrolet Corvette 117000 $12500 Longview Washington 2020-10-25
Image 1998 Chevrolet Corvette Coupe 2D 260000 $10000 Fallbrook California 2020-10-25
Image 1998 Chevrolet Corvette Coupe 2D 99000 $9950 Glendale Arizona 2020-10-25
Image 1998 Chevrolet Corvette 140000 $8000 Cedar Hill Texas 2020-10-25
Image 1998 Chevrolet Corvette 140000 $5000 Macomb Michigan 2020-10-24
Image 1998 Chevrolet Corvette Coupe 2D 140000 $8888 El Paso Texas 2020-10-24
Image 1998 Chevrolet Corvette Coupe 2D 162000 $8000 Parker Colorado 2020-10-22
Image 1998 Chevrolet Corvette Coupe 2D 145000 $10800 Grindstone Pennsylvania 2020-10-22
Image 1998 Chevrolet Corvette 113000 $12900 Lawrenceville Georgia 2020-10-22
Image 1998 Chevrolet Corvette 54000 $15000 Gilbertsville Pennsylvania 2020-10-22
Image 1998 Chevrolet Corvette Coupe 2D 50000 $15950 Ponchatoula Louisiana 2020-10-22
Image 1998 Chevrolet Corvette Coupe 2D 90000 $12000 Dearborn Michigan 2020-10-22
Image 1998 Chevrolet Corvette 64000 $15000 Succasunna New Jersey 2020-10-22
Image 1998 Chevrolet Corvette 100000 $13999 Rowley Massachusetts 2020-10-21
Image 1998 Chevrolet Corvette Coupe 2D 56000 $14000 Indianapolis IN 2020-10-18
Image 1998 Chevrolet Corvette Coupe 2D 120000 $13000 Racine Wisconsin 2020-10-18
Image 1998 Chevrolet Corvette Coupe 2D 90000 $13500 Columbus Ohio 2020-10-18
Image 1998 Chevrolet Corvette Coupe 2D 61000 $13250 Montverde Florida 2020-10-17
Image 1998 Chevrolet Corvette Coupe 2D 98000 $11950 Denton Texas 2020-10-17
Image 1998 Chevrolet Corvette Coupe 2D 96000 $13200 Glendale California 2020-10-17
Image 1998 Chevrolet Corvette Coupe 2D 114000 $12000 Phoenix Arizona 2020-10-12
Image 1998 Chevrolet Corvette Coupe 2D 12000 $15295 Chatsworth California 2020-10-12
Image 1998 Chevrolet Corvette Coupe 2D 137000 $14250 Fredericksburg Virginia 2020-10-12
Image 1998 Chevrolet Corvette Coupe 2D 157000 $9500 Prince Frederick Maryland 2020-10-12
Image 1998 Chevrolet Corvette Coupe 2D 92000 $13975 Bloomington Indiana 2020-10-12
Image 1998 Chevrolet Corvette Coupe 2D 107000 $8995 Oklahoma City OK 2020-10-12
Image 1998 Chevrolet Corvette 55000 $13500 Willingboro New Jersey 2020-10-12
Image 1998 Chevrolet Corvette Coupe 2D 155000 $12345 New York NY 2020-10-12
Image 1999 Chevrolet Corvette Hard Top Coupe 2D 125000 $8800 San Antonio Florida 2020-10-25
Image 1999 Chevrolet Corvette Coupe 2D 71000 $14999 Clearwater Florida 2020-10-25
Image 1999 Chevrolet Corvette Coupe 2D 101000 $11500 Escondido California 2020-10-25
Image 1999 Chevrolet Corvette Coupe 2D 93000 $11500 Tempe Arizona 2020-10-25
Image 1999 Chevrolet Corvette Coupe 2D 80000 $12999 Greensburg Pennsylvania 2020-10-25
Image 1999 Chevrolet Corvette 150000 $14000 Burleson Texas 2020-10-25
Image 1999 Chevrolet Corvette Coupe 2D 150000 $19990 Monroe North Carolina 2020-10-24
Image 1999 Chevrolet Corvette 120000 $11500 Cypress Texas 2020-10-24
Image 1999 Chevrolet Corvette Coupe 2D 39000 $21500 Chicago Illinois 2020-10-22
Image 1999 Chevrolet Corvette Coupe 2D 82000 $28000 Temple Terrace Florida 2020-10-22
Image 1999 Chevrolet Corvette 6000 $22500 Philadelphia Pennsylvania 2020-10-22
Image 1999 Chevrolet Corvette Coupe 2D 51000 $16500 Birmingham Michigan 2020-10-22
Image 1999 Chevrolet Corvette 185000 $11000 Shepherdsville Kentucky 2020-10-22
Image 1999 Chevrolet Corvette Coupe 2D 129000 $12000 Houston Texas 2020-10-21
Image 1999 Chevrolet Corvette Coupe 2D 111000 $11700 Moreno Valley California 2020-10-18
Image 1999 Chevrolet Corvette Coupe 2D 134000 $8427 Dallas Texas 2020-10-18
Image 1999 Chevrolet Corvette Coupe 2D 73000 $10000 Panorama City California 2020-10-18
Image 1999 Chevrolet Corvette Coupe 2D 30000 $19500 Dover New Jersey 2020-10-18
Image 1999 Chevrolet Corvette Hard Top Coupe 2D 60000 $20000 Warren Michigan 2020-10-18
Image 1999 Chevrolet Corvette Coupe 2D 123000 $10000 New Port Richey Florida 2020-10-18
Image 1999 Chevrolet Corvette 16000 $19000 Framingham Massachusetts 2020-10-17
Image 1999 Chevrolet Corvette Hard Top Coupe 2D 85000 $13500 Waldorf Maryland 2020-10-17
Image 1999 Chevrolet Corvette Hard Top Coupe 2D 180000 $8000 Ball Ground Georgia 2020-10-17
Image 1999 Chevrolet Corvette Coupe 2D 230000 $6900 New Smyrna Beach Florida 2020-10-17
Image 1999 Chevrolet Corvette 170000 $10000 Denton Texas 2020-10-17
Image 1999 Chevrolet Corvette Coupe 2D 115000 $11000 Smithville Missouri 2020-10-17
Image 1999 Chevrolet Corvette Hard Top Coupe 2D 94000 $11111 Conover North Carolina 2020-10-17
Image 1999 Chevrolet Corvette 185000 $11000 Shepherdsville Kentucky 2020-10-17
Image 1999 Chevrolet Corvette 67000 $15500 San Diego California 2020-10-17
Image 1999 Chevrolet Corvette 119000 $10900 New York NY 2020-10-17
Image 1999 Chevrolet Corvette Hard Top Coupe 2D 43000 $16000 Delaware OH 2020-10-17
Image 1999 Chevrolet Corvette Coupe 2D 90000 $12500 Columbus Ohio 2020-10-17
Image 1999 Chevrolet Corvette Coupe 2D 11000 $18700 Kissimmee Florida 2020-10-12
Image 1999 Chevrolet Corvette Coupe 2D 49000 $14999 Minooka Illinois 2020-10-12
Image 1999 Chevrolet Corvette Coupe 2D 83000 $12999 Indianapolis IN 2020-10-12
Image 1999 Chevrolet Corvette Coupe 2D 76000 $23000 Merced California 2020-10-12
Image 1999 Chevrolet Corvette Coupe 2D 90000 $12500 Tacoma Washington 2020-10-12
Image 1999 Chevrolet Corvette 4000 $18500 Harrison Michigan 2020-10-12
Image 1999 Chevrolet Corvette 4000 $18500 Harrison Michigan 2020-10-12
Image 1999 Chevrolet Corvette Hard Top Coupe 2D 24000 $18900 Lansdale Pennsylvania 2020-10-12
Image 2000 Chevrolet Corvette 23000 $26500 West Linn Oregon 2020-10-25
Image 2000 Chevrolet Corvette Coupe 2D 67000 $13800 Rancho Cucamonga California 2020-10-25
Image 2000 Chevrolet Corvette c5 6 speed manual w/ facemask 131000 $11800 Perris California 2020-10-25
Image 2000 Chevrolet Corvette Coupe 2D 84000 $11500 Gainesville Georgia 2020-10-24
Image 2000 Chevrolet Corvette Coupe 2D 120000 $9600 Charlotte North Carolina 2020-10-24
Image 2000 Chevrolet Corvette Coupe 2D 80000 $11500 Las Vegas Nevada 2020-10-22
Image 2000 Chevrolet Corvette 122000 $13000 Orlando Florida 2020-10-22
Image 2000 Chevrolet Corvette Coupe 2D 300000 $12648 Orlando Florida 2020-10-22
Image 2000 Chevrolet Corvette Coupe 2D 133000 $9000 Atlanta Georgia 2020-10-22
Image 2000 Chevrolet Corvette 83000 $13900 Lawrenceville Georgia 2020-10-22
Image 2000 Chevrolet Corvette Coupe 2D 123000 $12500 Dearborn Heights Michigan 2020-10-22
Image 2000 Chevrolet Corvette Coupe 2D 53000 $5995 Yonkers New York 2020-10-22
Image 2000 Chevrolet Corvette Hard Top 2D 35000 $25000 Kings Park New York 2020-10-22
Image 2000 Chevrolet Corvette Coupe 2D 80000 $14000 Pembroke Massachusetts 2020-10-21
Image 2000 Chevrolet Corvette Hard Top 2D 90000 $15000 San Antonio Texas 2020-10-18
Image 2000 Chevrolet Corvette 20000 $10000 Haslet Texas 2020-10-18
Image 2000 Chevrolet Corvette Coupe 2D 89000 $14991 Las Vegas Nevada 2020-10-18
Image 2000 Chevrolet Corvette Coupe 2D 82000 $15000 Spring Texas 2020-10-17
Image 2000 Chevrolet Corvette Hard Top 2D 126000 $17000 Friendswood Texas 2020-10-17
Image 2000 Chevrolet Corvette Coupe 2D 55000 $14300 Dacono Colorado 2020-10-17
Image 2000 Chevrolet Corvette C5 6 speed manual transmission 135000 $11500 Moreno Valley California 2020-10-17
Image 2000 Chevrolet Corvette Coupe 2D 67000 $14000 Rancho Cucamonga California 2020-10-17
Image 2000 Chevrolet Corvette 23000 $18500 Folsom California 2020-10-17
Image 2000 Chevrolet Corvette Coupe 2D 150000 $11000 Fair Haven New Jersey 2020-10-17
Image 2000 Chevrolet Corvette Coupe 2D 62000 $13995 Lithonia Georgia 2020-10-12
Image 2000 Chevrolet Corvette Coupe 2D 120000 $13500 San Diego California 2020-10-12
Image 2000 Chevrolet Corvette Coupe 2D 156000 $8000 Raytown Missouri 2020-10-12
Image 2000 Chevrolet Corvette Coupe 2D 280000 $9900 Rohnert Park California 2020-10-12
Image 2000 Chevrolet Corvette 80000 $15000 Oakland Michigan 2020-10-12
Image 2000 Chevrolet Corvette Hard Top 2D 88000 $12000 Sheboygan Wisconsin 2020-10-12
Image 2000 Chevrolet Corvette 55000 $15500 Dacono Colorado 2020-10-12
Image 2001 Chevrolet Corvette Coupe 2D 50000 $14000 Port Richey Florida 2020-10-25
Image 2001 Chevrolet Corvette 45000 $17995 Salem Oregon 2020-10-25
Image 2001 Chevrolet Corvette Coupe 2D 81000 $12000 Lathrop California 2020-10-25
Image 2001 Chevrolet Corvette Coupe 2D 53000 $10500 Philadelphia Pennsylvania 2020-10-25
Image 2001 Chevrolet Corvette Coupe 2D 96000 $14000 Phillipsburg New Jersey 2020-10-25
Image 2001 Chevrolet Corvette Z06 Coupe 2D 102000 $18000 Pembroke Pines Florida 2020-10-25
Image 2001 Chevrolet Corvette Z06 Hard Top 2D 115000 $9999 Dallas Texas 2020-10-25
Image 2001 Chevrolet Corvette 48000 $11500 Brooklyn New York 2020-10-24
Image 2001 Chevrolet Corvette Coupe 2D 123000 $11995 Orlando Florida 2020-10-22
Image 2001 Chevrolet Corvette Coupe 2D 86000 $10900 Phoenix Arizona 2020-10-22
Image 2001 Chevrolet Corvette Coupe 2D 118000 $11500 Houston Texas 2020-10-21
Image 2001 Chevrolet Corvette Z06 Coupe 2D 60000 $20000 North Attleboro Massachusetts 2020-10-21
Image 2001 Chevrolet Corvette 82000 $15750 Greenwood Indiana 2020-10-18
Image 2001 Chevrolet Corvette Coupe 2D 123000 $13000 Dallas Texas 2020-10-18
Image 2001 Chevrolet Corvette 123000 $12995 Tampa Florida 2020-10-18
Image 2001 Chevrolet Corvette Z06 Coupe 2D 87000 $14800 Phoenix Arizona 2020-10-17
Image 2001 Chevrolet Corvette Coupe 2D 66000 $14750 Charlotte North Carolina 2020-10-17
Image 2001 Chevrolet Corvette Coupe 2D 123000 $12345 El Cajon California 2020-10-17
Image 2001 Chevrolet Corvette Z06 Coupe 2D 87000 $16500 Fremont California 2020-10-17
Image 2001 Chevrolet Corvette Z06 Coupe 2D 66000 $16995 Hollywood Florida 2020-10-17
Image 2001 Chevrolet Corvette Coupe 2D 119000 $14000 Santa Rosa California 2020-10-17
Image 2001 Chevrolet Corvette Coupe 2D 12000 $11111 Lake Mary Florida 2020-10-12
Image 2001 Chevrolet Corvette Coupe 2D 144000 $10000 Huntington Beach California 2020-10-12
Image 2001 Chevrolet Corvette Coupe 2D 49000 $15000 Leominster Massachusetts 2020-10-12
Image 2001 Chevrolet Corvette Coupe 2D 41000 $17500 Leavenworth Kansas 2020-10-12
Image 2001 Chevrolet Corvette 138000 $12500 Hialeah Florida 2020-10-12
Image 2001 Chevrolet Corvette Z06 Coupe 2D 63000 $16500 Brighton Michigan 2020-10-12
Image 2001 Chevrolet Corvette Coupe 2D 52000 $12000 Philadelphia Pennsylvania 2020-10-12
Image 2002 Chevrolet Corvette Coupe 2D 78000 $13999 Tampa Florida 2020-10-25
Image 2002 Chevrolet Corvette 65000 $9500 Portland Oregon 2020-10-25
Image 2002 Chevrolet Corvette 36000 $19500 Salem Oregon 2020-10-25
Image 2002 Chevrolet Corvette Coupe 2D 91000 $12000 Clint Texas 2020-10-25
Image 2002 Chevrolet Corvette Coupe 2D 68000 $16500 Saukville Wisconsin 2020-10-25
Image 2002 Chevrolet Corvette Coupe 2D 98000 $18000 Las Vegas Nevada 2020-10-22
Image 2002 Chevrolet Corvette Coupe 2D 85000 $10000 Denver Colorado 2020-10-22
Image 2002 Chevrolet Corvette Coupe 2D 58000 $12900 Lafayette Tennessee 2020-10-22
Image 2002 Chevrolet Corvette Z06 Hard Top 2D 150000 $16000 Shelbyville Tennessee 2020-10-22
Image 2002 Chevrolet Corvette Coupe 2D 40000 $21999 Roseville California 2020-10-22
Image 2002 Chevrolet Corvette Coupe 2D 85000 $10000 Denver Colorado 2020-10-21
Image 2002 Chevrolet Corvette 111000 $9500 Victorville California 2020-10-18
Image 2002 Chevrolet Corvette Coupe 2D 120000 $16000 Salisbury North Carolina 2020-10-18
Image 2002 Chevrolet Corvette Z06 Hard Top 2D 32000 $22500 La Plata Maryland 2020-10-18
Image 2002 Chevrolet Corvette Coupe 2D 56000 $12000 Denver Colorado 2020-10-18
Image 2002 Chevrolet Corvette 32000 $24000 Boca Raton Florida 2020-10-18
Image 2002 Chevrolet Corvette Z06 Hard Top 2D 150000 $12500 Dublin Ohio 2020-10-18
Image 2002 Chevrolet Corvette Coupe 2D 86000 $12988 Cordova Tennessee 2020-10-18
Image 2002 Chevrolet Corvette Coupe 2D 54000 $17000 Laplace Louisiana 2020-10-17
Image 2002 Chevrolet Corvette Z06 Hard Top 2D 180000 $18000 Snellville Georgia 2020-10-17
Image 2002 Chevrolet Corvette 111000 $11111 Orlando Florida 2020-10-17
Image 2002 Chevrolet Corvette 50000 $500 Algonquin Illinois 2020-10-17
Image 2002 Chevrolet Corvette 79000 $12500 Fort Mohave Arizona 2020-10-17
Image 2002 Chevrolet Corvette Coupe 2D 141000 $12000 Lake Elsinore California 2020-10-12
Image 2002 Chevrolet Corvette Z06 Hard Top 2D 57000 $21500 Kings Mountain North Carolina 2020-10-12
Image 2002 Chevrolet Corvette Coupe 2D 120000 $12000 Bethel Minnesota 2020-10-12
Image 2002 Chevrolet Corvette Coupe 2D 53000 $15999 Hurricane Utah 2020-10-12
Image 2002 Chevrolet Corvette Coupe 2D 120000 $13800 San Jose California 2020-10-12
Image 2002 Chevrolet Corvette Coupe 2D 82000 $17491 Houston Texas 2020-10-12
Image 2002 Chevrolet Corvette Coupe 2D 83000 $19500 Spring Texas 2020-10-12
Image 2002 Chevrolet Corvette Coupe 2D 60000 $16000 Lake Orion Michigan 2020-10-12
Image 2002 Chevrolet Corvette Coupe 2D 128000 $15900 Parkville Maryland 2020-10-12
Image 2002 Chevrolet Corvette Z06 Hard Top 2D 29000 $25000 Wadsworth Illinois 2020-10-12
Image 2002 Chevrolet Corvette Coupe 2D 38000 $35000 Smithville Texas 2020-10-12
Image 2003 Chevrolet Corvette Z06 Coupe 2D 53000 $21800 Monroe New Jersey 2020-10-25
Image 2003 Chevrolet Corvette 128000 $12500 Conyers Georgia 2020-10-25
Image 2003 Chevrolet Corvette 43000 $19900 Algonquin Illinois 2020-10-25
Image 2003 Chevrolet Corvette Coupe 2D 126000 $8900 Garland Texas 2020-10-25
Image 2003 Chevrolet Corvette Z06 Coupe 2D 74000 $19000 Plano Texas 2020-10-25
Image 2003 Chevrolet Corvette Coupe 2D 93000 $13995 Las Vegas Nevada 2020-10-24
Image 2003 Chevrolet Corvette Coupe 2D 26000 $22500 Lewis Center Ohio 2020-10-24
Image 2003 Chevrolet Corvette Z06 Coupe 2D 118000 $14500 Oakland California 2020-10-24
Image 2003 Chevrolet Corvette 69000 $21000 San Mateo California 2020-10-24
Image 2003 Chevrolet Corvette Coupe 2D 130000 $12500 Las Vegas Nevada 2020-10-22
Image 2003 Chevrolet Corvette Coupe 2D 90000 $13500 Frisco Texas 2020-10-22
Image 2003 Chevrolet Corvette Z06 Coupe 2D 53000 $26000 Dallas Texas 2020-10-22
Image 2003 Chevrolet Corvette 114000 $9500 Russellville Kentucky 2020-10-22
Image 2003 Chevrolet Corvette Coupe 2D 131000 $15000 O'Fallon Missouri 2020-10-22
Image 2003 Chevrolet Corvette 200000 $12000 Spring Texas 2020-10-21
Image 2003 Chevrolet Corvette Coupe 2D 150000 $6500 Houston Texas 2020-10-21
Image 2003 Chevrolet Corvette Z06 Coupe 2D 12000 $29950 Chino Valley Arizona 2020-10-18
Image 2003 Chevrolet Corvette Coupe 2D 200000 $6500 Lancaster Texas 2020-10-18
Image 2003 Chevrolet Corvette Coupe 2D 65000 $19500 Henderson Nevada 2020-10-18
Image 2003 Chevrolet Corvette Z06 Coupe 2D 47000 $24990 Atlanta Georgia 2020-10-17
Image 2003 Chevrolet Corvette Coupe 2D 20000 $23999 Queen Creek Arizona 2020-10-17
Image 2003 Chevrolet Corvette Coupe 2D 19000 $30000 Oakdale Pennsylvania 2020-10-17
Image 2003 Chevrolet Corvette Z06 Coupe 2D 72000 $10500 Miami Florida 2020-10-17
Image 2003 Chevrolet Corvette Z06 Coupe 2D 110000 $16500 Williamstown New Jersey 2020-10-17
Image 2003 Chevrolet Corvette Coupe 2D 50000 $18500 Sewell New Jersey 2020-10-17
Image 2003 Chevrolet Corvette Coupe 2D 131000 $11500 Goodyear Arizona 2020-10-12
Image 2003 Chevrolet Corvette Coupe 2D 123000 $15000 DeLand Florida 2020-10-12
Image 2003 Chevrolet Corvette Coupe 2D 44000 $16800 Annandale Minnesota 2020-10-12
Image 2003 Chevrolet Corvette Z06 Coupe 2D 36000 $24900 Lakeville Minnesota 2020-10-12
Image 2003 Chevrolet Corvette Z06 Coupe 2D 33000 $23500 El Paso Texas 2020-10-12
Image 2003 Chevrolet Corvette 50000 $18500 West New York NJ 2020-10-12
Image 2003 Chevrolet Corvette Z06 Coupe 2D 29000 $21000 Erie Colorado 2020-10-12
Image 2004 Chevrolet Corvette Coupe 2D 110000 $14500 Dripping Springs Texas 2020-10-25
Image 2004 Chevrolet Corvette 94000 $14888 Norwood Massachusetts 2020-10-25
Image 2004 Chevrolet Corvette 38000 $25000 Columbus Ohio 2020-10-24
Image 2004 Chevrolet Corvette Coupe 2D 74000 $17997 Dallas Texas 2020-10-22
Image 2004 Chevrolet Corvette Coupe 2D 120000 $13000 Chicago Illinois 2020-10-22
Image 2004 Chevrolet Corvette 31000 $24351 Manchester New Jersey 2020-10-22
Image 2004 Chevrolet Corvette 25000 $26000 Southampton Pennsylvania 2020-10-22
Image 2004 Chevrolet Corvette Coupe 2D 59000 $19500 Blue Springs Missouri 2020-10-22
Image 2004 Chevrolet Corvette Z06 Coupe 2D 109000 $13000 St Augustine Florida 2020-10-21
Image 2004 Chevrolet Corvette Coupe 2D 34000 $18900 Titusville Florida 2020-10-18
Image 2004 Chevrolet Corvette Coupe 2D 19000 $24000 Pasadena Maryland 2020-10-18
Image 2004 Chevrolet Corvette 15000 $25000 Austin Texas 2020-10-18
Image 2004 Chevrolet Corvette Coupe 2D 111000 $14000 El Paso Texas 2020-10-17
Image 2004 Chevrolet Corvette 43000 $19912 Clarksville Tennessee 2020-10-17
Image 2004 Chevrolet Corvette Coupe 2D 203000 $8995 Markham Illinois 2020-10-17
Image 2004 Chevrolet Corvette Coupe 2D 75000 $15000 Sacramento California 2020-10-17
Image 2004 Chevrolet Corvette Z06 Coupe 2D 15000 $30997 Davenport Florida 2020-10-12
Image 2004 Chevrolet Corvette Coupe 2D 139000 $12995 Valparaiso Indiana 2020-10-12
Image 2004 Chevrolet Corvette Coupe 2D 94000 $13900 Shelbyville Indiana 2020-10-12
Image 2004 Chevrolet Corvette Coupe 2D 172000 $11900 Slidell Louisiana 2020-10-12
Image 2004 Chevrolet Corvette Coupe 2D 172000 $11900 Slidell Louisiana 2020-10-12
Image 2004 Chevrolet Corvette Z06 Coupe 2D 25000 $25000 Piscataway New Jersey 2020-10-12

User avatar
Feed
Site Admin
Posts: 2826
Joined: Fri Jul 31, 2020 9:57 am

Re: Chevrolet Corvette 1997-2004 (C5)

Post by Feed »

Found on 08-22-2020

If you like this kind of thing, subscribe to our mailing list for updates. It's worth your time, I promise. We also have a Discord server.

Image
1997 Corvette Coupe 2D
Springfield, Missouri
67000 miles
$13500

Image
1997 Corvette Coupe 2D
Uniontown, Ohio
26000 miles
$16500

Image
1997 Corvette Coupe 2D
Toledo, Ohio
127000 miles
$12000

Image
1997 Corvette Coupe 2D
Dalton, Georgia
57000 miles
$12000

Image
1997 Corvette Coupe 2D
Porterdale, Georgia
84000 miles
$12000

Image
1997 Corvette Coupe 2D
Racine, Wisconsin
133000 miles
$20000

Image
1997 Corvette Coupe 2D
Brooklyn, New York
21000 miles
$18000

Image
1997 Corvette Coupe 2D
Spring Valley, California
123000 miles
$9500

Image
1998 Corvette Coupe 2D
Marysville, Washington
66000 miles
$13500

Image
1998 Corvette Coupe 2D
Arlington, Washington
158000 miles
$9000

Image
1998 Corvette Coupe 2D
Bothell, Washington
32000 miles
$17995

Image
1998 Corvette Coupe 2D
Blacklick, Ohio
56000 miles
$19000

Image
1998 Corvette Coupe 2D
London, Kentucky
130000 miles
$8995

Image
1998 Corvette Coupe 2D
Grafton, Ohio
140000 miles
$8900

Image
1998 Corvette Coupe 2D
Bargersville, Indiana
88000 miles
$14500

Image
1998 Corvette
Houston, Texas
75000 miles
$12000

Image
1998 Corvette Coupe 2D
Suwanee, Georgia
115000 miles
$12000

Image
1998 Corvette
Shelby, Michigan
14000 miles
$23500

Image
1998 Corvette Coupe 2D
Pleasantville, New York
66000 miles
$8500

Image
1998 Corvette
Port Washington, NY
53000 miles
$18500

Image
1998 Corvette Coupe 2D
Las Vegas, Nevada
52000 miles
$13499

Image
1998 Corvette Coupe 2D
Palmdale, California
111000 miles
$10500

Image
1998 Corvette Coupe 2D
San Bernardino, California
74000 miles
$11000

Image
1999 Corvette Coupe 2D
Wichita Falls, Texas
100000 miles
$12500

Image
1999 Corvette Coupe 2D
Sacramento, California
180000 miles
$13000

Image
1999 Corvette
Church Hill, Tennessee
66000 miles
$14500

Image
1999 Corvette Hard Top Coupe 2D
Stockbridge, Georgia
46000 miles
$20000

Image
1999 Corvette Coupe 2D
Jamaica, New York
74000 miles
$6500

Image
1999 Corvette Coupe 2D
Neptune, New Jersey
88000 miles
$15500

Image
2000 Corvette Hard Top 2D
Bremerton, Washington
111000 miles
$14500

Image
2000 Corvette Hard Top 2D
Grove City, Ohio
68000 miles
$19999

Image
2000 Corvette
Marysville, Ohio
120000 miles
$10000

Image
2000 Corvette
Delaware, OH
2000 miles
$10000

Image
2000 Corvette Coupe 2D
Millfield, Ohio
170000 miles
$11111

Image
2000 Corvette
Olive Hill, Kentucky
75000 miles
$11000

Image
2000 Corvette
Kent, Ohio
40000 miles
$18000

Image
2000 Corvette Coupe 2D
Kimmell, Indiana
100000 miles
$12410

Image
2000 Corvette Hard Top 2D
Statesville, North Carolina
29000 miles
$16000

Image
2000 Corvette Hard Top 2D
Mooresville, North Carolina
52000 miles
$16900

Image
2000 Corvette Hard Top 2D
Point Pleasant Beach, New Jersey
18000 miles
$18000

Image
2000 Corvette Coupe 2D
Dumont, New Jersey
13000 miles
$16500

Image
2000 Corvette Hard Top 2D
North Babylon, New York
52000 miles
$14500

Image
2000 Corvette Coupe 2D
Jackson, New Jersey
68000 miles
$20000

Image
2000 Corvette Coupe 2D
Bloomfield, New Jersey
94000 miles
$14400

Image
2000 Corvette
North Scituate, Rhode Island
49000 miles
$17500

Image
2001 Corvette Coupe 2D
Grand Prairie, Texas
83000 miles
$13000

Image
2001 Corvette
Wilsonville, Oregon
101000 miles
$10500

Image
2001 Corvette Z06 Coupe 2D
Katy, Texas
75000 miles
$18000

Image
2001 Corvette Coupe 2D
Edmonds, Washington
136000 miles
$9950

Image
2001 Corvette
Toms Brook, Virginia
101000 miles
$14000

Image
2001 Corvette Coupe 2D
Oliver Springs, Tennessee
83000 miles
$11800

Image
2001 Corvette Z06 Coupe 2D
Highlands, Texas
22000 miles
$23000

Image
2001 Corvette Coupe 2D
Birmingham, Alabama
85000 miles
$11400

Image
2001 Corvette
Mountain Grove, Missouri
114000 miles
$12000

Image
2001 Corvette Z06 Coupe 2D
Rock Hill, South Carolina
62000 miles
$24000

Image
2001 Corvette Coupe 2D
Valhalla, New York
500 miles
$9876

Image
2001 Corvette
Valley Stream, New York
89000 miles
$12800

Image
2001 Corvette
Brick, New Jersey
73000 miles
$14999

Image
2001 Corvette Coupe 2D
Nesconset, New York
45000 miles
$15999

Image
2001 Corvette Z06 Coupe 2D
Pahrump, Nevada
37000 miles
$22500

Image
2001 Corvette Coupe 2D
Plymouth, Massachusetts
38000 miles
$17950

Image
2002 Corvette Coupe 2D
Springdale, Arkansas
105000 miles
$12900

Image
2002 Corvette Coupe 2D
Littleton, Colorado
50000 miles
$22000

Image
2002 Corvette Coupe 2D
Palestine, Texas
60000 miles
$18000

Image
2002 Corvette Z06 Hard Top 2D
Monroe, Washington
113000 miles
$16000

Image
2002 Corvette Coupe 2D
Muskegon, Michigan
72000 miles
$13500

Image
2002 Corvette Z06 Hard Top 2D
Amelia, Ohio
18000 miles
$26000

Image
2002 Corvette Coupe 2D
Cypress, Texas
58000 miles
$16995

Image
2002 Corvette Coupe 2D
Cookeville, Tennessee
159000 miles
$9000

Image
2002 Corvette Coupe 2D
Tucson, Arizona
102000 miles
$12195

Image
2002 Corvette Z06 Hard Top 2D
Rego Park, New York
95000 miles
$12000

Image
2002 Corvette Z06 Hard Top 2D
Bayville, New York
43000 miles
$19000

Image
2002 Corvette Z06 Hard Top 2D
Ventura, California
50000 miles
$23500

Image
2003 Corvette Z06 Coupe 2D
McKinney, Texas
43000 miles
$24000

Image
2003 Corvette Z06 Coupe 2D
Wichita, Kansas
86000 miles
$17000

Image
2003 Corvette Coupe 2D
Covington, Washington
76000 miles
$13500

Image
2003 Corvette Z06 Coupe 2D
Kirkland, Washington
104000 miles
$19000

Image
2003 Corvette Coupe 2D
St Cloud, Florida
90000 miles
$15500

Image
2003 Corvette Coupe 2D
Jackson, Missouri
52000 miles
$14500

Image
2003 Corvette Coupe 2D
Norcross, Georgia
32000 miles
$22886

Image
2003 Corvette Coupe 2D
Great Meadows, New Jersey
137000 miles
$15000

Image
2003 Corvette T Top
Valley Stream, New York
58000 miles
$14701

Image
2003 Corvette Coupe 2D
Las Vegas, Nevada
100000 miles
$14000

Image
2003 Corvette Coupe 2D
Grand Prairie, Texas
50000 miles
$17900

Image
2003 Corvette Coupe 2D
Baldwin Park, California
123000 miles
$10000

Image
2004 Corvette Z06 Coupe 2D
Loveland, Colorado
39000 miles
$27000

Image
2004 Corvette
Austin, Texas
15000 miles
$25000

Image
2004 Corvette Coupe 2D
Bothell, Washington
88000 miles
$16999

Image
2004 Corvette Z06 Coupe 2D
Redmond, Washington
43000 miles
$23000

Image
2004 Corvette Coupe 2D
Everett, Washington
116000 miles
$11999

Image
2004 Corvette Coupe 2D
Lima, Ohio
116000 miles
$10900

Image
2004 Corvette Coupe 2D
Lafayette, Indiana
124000 miles
$10900

Image
2004 Corvette Coupe 2D
Richmond, Kentucky
125000 miles
$10000

Image
2004 Corvette Coupe 2D
Dallas, Georgia
13000 miles
$22500

Image
2004 Corvette Z06 Coupe 2D
Lawrenceville, Georgia
105000 miles
$16500

Image
2004 Corvette Coupe 2D
Marietta, Georgia
90000 miles
$15900

Image
2004 Corvette Coupe 2D
Canton, Georgia
123000 miles
$10000

Image
2004 Corvette Coupe 2D
El Paso, Texas
85000 miles
$17995

Image
2004 Corvette Coupe 2D
Pelham, New York
160000 miles
$12500

Image
2004 Corvette Coupe 2D
Granite Springs, New York
98000 miles
$12500

Image
2004 Corvette Coupe 2D
New York, NY
40000 miles
$12500

User avatar
Feed
Site Admin
Posts: 2826
Joined: Fri Jul 31, 2020 9:57 am

Re: Chevrolet Corvette 1997-2004 (C5)

Post by Feed »

Found on 08-24-2020

If you like this kind of thing, subscribe to our mailing list for updates. It's worth your time, I promise. We also have a Discord server.

Image
1997 Corvette Coupe 2D
Jackson, Mississippi
33000 miles
$14500

Image
1997 Corvette Coupe 2D
Tampa, Florida
216000 miles
$10000

Image
1998 Corvette Coupe 2D
Biloxi, Mississippi
20000 miles
$11000

Image
1998 Corvette Coupe 2D
Fairhope, Alabama
123000 miles
$12000

Image
1998 Corvette
Rosedale, Louisiana
63000 miles
$14000

Image
1998 Corvette
West Monroe, Louisiana
113000 miles
$12995

Image
1998 Corvette Coupe 2D
Kansas City, MO
106000 miles
$10000

Image
1998 Corvette Coupe 2D
Pittsburg, Kansas
118000 miles
$10500

Image
1998 Corvette Coupe 2D
Gilberts, Illinois
70000 miles
$11900

Image
1998 Corvette Coupe 2D
McGregor, Texas
83000 miles
$12900

Image
1999 Corvette Hard Top Coupe 2D
Dothan, Alabama
90000 miles
$9500

Image
1999 Corvette
Jurupa Valley, California
300 miles
$5000

Image
1999 Corvette Coupe 2D
Gatlinburg, Tennessee
68000 miles
$12500

Image
1999 Corvette Hard Top Coupe 2D
Hayward, California
111000 miles
$11500

Image
1999 Corvette
Schiller Park, Illinois
95000 miles
$15500

Image
1999 Corvette Hard Top Coupe 2D
San Juan, Texas
172000 miles
$7250

Image
2000 Corvette
Baton Rouge, Louisiana
110000 miles
$11500

Image
2000 Corvette Coupe 2D
Dunkirk, Indiana
180000 miles
$6800

Image
2000 Corvette Coupe 2D
San Bernardino, California
116000 miles
$11000

Image
2000 Corvette
San Bernardino, California
116000 miles
$11000

Image
2000 Corvette Coupe 2D
Waterford, Michigan
35000 miles
$19000

Image
2001 Corvette Coupe 2D
Pleasant Prairie, Wisconsin
124000 miles
$9500

Image
2001 Corvette Z06 Coupe 2D
Moss Point, Mississippi
61000 miles
$18000

Image
2001 Corvette Coupe 2D
Milton, Florida
69000 miles
$13500

Image
2001 Corvette Coupe 2D
Pensacola, Florida
160000 miles
$12000

Image
2001 Corvette Coupe 2D
Jackson, New Jersey
70000 miles
$15000

Image
2001 Corvette Z06 Coupe 2D
Dallas, Texas
21000 miles
$12000

Image
2001 Corvette Z06 Coupe 2D
Chicago, Illinois
57000 miles
$20500

Image
2001 Corvette Coupe 2D
Louisville, Kentucky
28000 miles
$15900

Image
2002 Corvette Coupe 2D
Lucedale, Mississippi
114000 miles
$14000

Image
2002 Corvette Coupe 2D
Brandon, Florida
106000 miles
$10000

Image
2002 Corvette Coupe 2D
Buffalo, Minnesota
45000 miles
$16000

Image
2002 Corvette
Orange Grove, Texas
121000 miles
$10000

Image
2003 Corvette Z06 Coupe 2D
Canoga Park, California
23000 miles
$27500

Image
2003 Corvette Coupe 2D
Bloomingdale, New Jersey
94000 miles
$12990

Image
2003 Corvette Coupe 2D
Vail, Arizona
35000 miles
$15000

Image
2003 Corvette Coupe 2D
Oxford, Indiana
60000 miles
$13000

Image
2003 Corvette Coupe 2D
Kansas City, MO
18000 miles
$24875

Image
2003 Corvette Z06 Coupe 2D
Weslaco, Texas
74000 miles
$12345

Image
2004 Corvette Coupe 2D
Gulfport, Mississippi
115000 miles
$25000

Image
2004 Corvette Z06 Coupe 2D
Ontario, California
37000 miles
$23000

Image
2004 Corvette
Clarksville, Tennessee
65000 miles
$15000

Image
2004 Corvette Coupe 2D
Kansas City, MO
75000 miles
$20500

Image
2004 Corvette Coupe 2D
Wentzville, Missouri
56000 miles
$20500

Post Reply